Location: Melbourne
(37.8120°S, 144.9677°E)
Time: 14:11:40
(UTC+11:00)

ISS - Visible Passes

Search period start: 02 April 2015 00:00
Search period end: 11 April 2015 23:00
Orbit: 396 x 405 km, 51.6° (Epoch: 01 April)

Date Brightness Start Highest point End Pass type
(mag) Time Alt. Az. Time Alt. Az. Time Alt. Az.
06 Apr 0.1 06:12:06 10° NE 06:13:03 11° NE 06:14:07 10° ENE visible
08 Apr -1.1 05:59:06 10° NNW 06:01:52 26° NE 06:04:42 10° ESE visible
09 Apr -0.3 05:06:50 10° NNE 05:08:19 13° NE 05:09:57 10° E visible
10 Apr -3.0 05:47:24 10° NW 05:50:38 68° NE 05:53:55 10° SE visible
11 Apr -1.8 04:56:22 28° NNE 04:56:57 30° NE 04:59:54 10° ESE visible
